Cadjehoun Airport

Jump to: basic info | weather | frequencies | runways | comments

Related pages: nearby airports | nearby navaids | notams | map

Basic information (top)

Codes: COO DBBB
Location: lon 6.357230, lat 2.384350, elev 19 ft / 6 m msl
Status: medium_airport
Scheduled airline service: yes
Links: Wikipedia Mobile

Weather (top)

Current conditions (rec'd 2014/04/23 11:00Z):

DBBB 231100Z 23011KT 8000 SCT012 BKN100 32/27 Q1010 NOSIG

Airport forecast (rec'd 2014/04/22 18:00Z):

TAF DBBB 221700Z 2218/2324 22010KT 9999 SCT013 
      TEMPO 2304/2308 TS BKN010 FEW023CB PROB30 4000 -TSRA 
      BECMG 2312/2314 SCT013 FEW023CB 
      TEMPO 2314/2318 TS 
      BECMG 2318/2320 SCT013

Frequencies (top)

Verify before use: may be inaccurate or out of date.

A/G: 658.6 MHz (A/G VOICE RDO)
APP: 125.9 MHz (APP)
TWR: 125.9 MHz (TWR)

Runways (top)

06/24: 7,874 x 148 ft (2,400 x 45 m) — paved — lighted — threshold 06 displaced 125 ft (38 m)

Latest comments (top)

No comments yet for Cadjehoun Airport

More... (top)

See also NOTAMs and nearby airports and navaids, or visit the Cadjehoun Airport page at the main OurAirports website..